STARLINK-35666, 66222

Orbit data source: Space-Track

STARLINK-35666, 66222 is a payload satellite owned by SpaceX/Seattle (US) in LEO that was launched on Tue, 28 Oct 2025 UTC via an FALCON 9 launch vehicle from the Air Force Western Test Range (AFWTR). Payload-class satellites include a variety of spacecraft equipped with specific instruments for various scientific and technological missions. These include communications satellites like Starlink; space stations such as the ISS; scientific satellites like the Hubble; Earth observation satellites from companies like Planet Labs, Umbra, and HawkEye 360; GPS; miniature CubeSats for education and research; and military/defense satellites.

Loading next visibility...
Identifier
66222, 2025-244S
Orbit
LEO
Country
Flag of USUS
Related business
Manufacturer
SpaceX/Seattle
Mission
Operational Commercial Communications
Bus & Motor
STARLINK V2MO, Unknown motor
Mass
575 kg wet, ~530 kg dry
Launch date (UTC)
2025-10-28 (8 months ago)
Launch vehicle
FALCON 9
Launch site
Air Force Western Test Range (AFWTR)
Object type
Payload
Rocket body
Debris
Shape & HBR
Box + 2 Pan, 17.7 m
Radar Cross Section
36.964 m², Large (>1 m²)

Expand to show TLE details & history
Last TLE update: 1 day ago

TLE from 1 day ago
0 STARLINK-35666
1 66222U 25244S   26170.81294609  .00015191  00000-0  52417-3 0  9999
2 66222  53.1581 115.6579 0001148  97.9994 262.1137 15.30186399 37296
Epoch: 2026-06-19T19:30Z
TLE epoch observation values (Epoch: 2026-06-19T19:30:38.542Z)
Latitude
-0.00001°
Longitude
-85.03924°
Altitude
476.263 km
Speed
7.629 km/s
True Right ascension
07h 42m 37s
True Declination
0° 00' 00"
Sunlit
Object was in daylight at epoch
Visualization orbit readout
Latitude
Unknown
Longitude
Unknown
Altitude
Unknown
Speed
Unknown
Apparent Right ascension
Unknown
Apparent Declination
Unknown
Sunlit
N/A
Visualization observer readout
Local Sidereal Time
07:17:41
Azimuth
Unknown
Elevation
Unknown
Doppler factor
Unknown
Orbital elements
Apogee altitude
476.299 km
Perigee altitude
474.726 km
Semi-major axis
6,853.649 km
Eccentricity
0.00011
Inclination
53.1581°
RAAN
115.6579°
Arg. of periapsis
97.9994°
True anomaly
262.10067°
Mean anomaly
262.1137°
Eccentric anomaly
262.10718°
Mean motion
3.82525 °/min
Orbital period
94.11 mins
BSTAR
0.00052417
Loading maneuver chart data...
Computing Atmospheric mass density...
Loading historical data...
Loading historical data...
Loading historical data...
Loading historical data...
Loading historical data...
Loading historical data...
Loading historical data...

Documentation

Showing up to 5 results
|